Regional Weather Roundup
Issued by NWS

Home | Current Version | Previous Version | Graphics & Text | Print | Product List | Glossary On
Versions: 1 2 3 4 5 6 7 8 9 10 11 12 13 14 15 16 17 18 19 20 21 22 23 24 25 26 27 28 29 30 31 32 33 34 35 36 37 38 39 40 41 42 43 44 45 46 47 48 49 50
000
ASUS43 KDTX 231410
RWRMI
MICHIGAN HOURLY REGIONAL WEATHER ROUNDUP
NATIONAL WEATHER SERVICE DETROIT/PONTIAC MI
1000 AM EDT TUE MAY 23 2017

NOTE: "FAIR" INDICATES FEW OR NO CLOUDS BELOW 12,000 FEET WITH NO
SIGNIFICANT WEATHER AND/OR OBSTRUCTION TO VISIBILITY.

MIZ047>049-052>055-059>063-066>070-074>076-081>083-231500-
SOUTHEAST LOWER MICHIGAN

CITY           SKY/WX    TMP DP  RH WIND       PRES   REMARKS
ADRIAN         CLOUDY    63  51  65 SW6       29.89S
ALMA           CLOUDY    60  55  82 S7        29.84S
ANN ARBOR      CLOUDY    60  53  77 SE5       29.87F
BAD AXE        CLOUDY    58  54  86 SW3       29.87S
CARO           CLOUDY    61  54  78 S7        29.85F
DETROIT CITY   CLOUDY    63  51  65 S6        29.88F
DETROIT        CLOUDY    62  51  67 S7        29.89S
FLINT          CLOUDY    61  51  70 SW8       29.86S
GROSSE ILE     CLOUDY    62  55  76 S6        29.88S
HILLSDALE      CLOUDY    63  52  67 S5        29.87S
HOWELL         CLOUDY    62  49  63 SW8       29.86S

CITY           SKY/WX    TMP DP  RH WIND       PRES   REMARKS
JACKSON        CLOUDY    63  52  67 SW8       29.86F
LAMBERTVILLE   PTSUNNY   65  49  55 W7        29.88F
LANSING        MOSUNNY   63  51  65 SW7       29.85F
LAPEER         CLOUDY    61  52  72 S12       29.87S
MASON          CLOUDY    62  53  72 SW5       29.86S
MONROE         CLOUDY    65  50  60 SW6       29.88S
MT. CLEMENS    CLOUDY    63  56  76 SE2       29.87S
PONTIAC        CLOUDY    60  51  72 S5        29.87S
PORT HOPE        N/A     59  56  89 VRB3      29.84S
PORT HURON     CLOUDY    61  50  67 S5        29.89S
TRI CITIES     CLOUDY    61  55  81 SW5       29.85S
MIDLAND        RAIN      59  54  81 S3        29.84S
TROY           LGT RAIN  62  49  62 SW6       29.89F
SAGINAW HB     CLOUDY    61  50  67 S7        29.84S
$$
MIZ043>046-050>051-056>058-064>065-071>073-077>080-231500-
SOUTHWEST LOWER MICHIGAN

CITY           SKY/WX    TMP DP  RH WIND       PRES   REMARKS
BATTLE CREEK   CLOUDY    61  54  77 SW8       29.86S
BENTON HARBOR  CLOUDY    64  51  62 SW9       29.83S
BIG RAPIDS     CLOUDY    57  54  89 S9        29.82S
COLDWATER      CLOUDY    63  55  74 S3        29.86S
FREMONT        CLOUDY    60  55  81 SW6       29.81S
HOLLAND        PTSUNNY   64  52  64 SW17      29.83S
GRAND RAPIDS   CLOUDY    64  54  69 SW10      29.82F
IONIA          FAIR      63  51  66 SW9       29.83S
KALAMAZOO      CLOUDY    62  52  69 SW6       29.85S
LUDINGTON      CLOUDY    58  55  90 CALM      29.80S
MARSHALL       CLOUDY    63  53  69 SW5       29.86S
MOUNT PLEASANT LGT RAIN  59  53  81 S3        29.83S
MUSKEGON       PTSUNNY   62  54  74 S16       29.82S
SOUTH HAVEN    CLOUDY    64  52  65 SW10G17   29.83S
$$
MIZ016>042-231500-
NORTHERN LOWER MICHIGAN

CITY           SKY/WX    TMP DP  RH WIND       PRES   REMARKS
ALPENA         SUNNY     62  50  64 VRB3      29.85S
BEAVER ISLAND  PTSUNNY   55  47  75 E5        29.85F
BELLAIRE       CLOUDY    54  52  93 N5        29.82F
CADILLAC       CLOUDY    56  53  92 SE5       29.81F
CHARLEVOIX     CLOUDY    51  51  99 N3        29.87F
FRANKFORT      CLOUDY    57  49  74 CALM      29.81S
GAYLORD        MOSUNNY   60  46  59 E5        29.83F
GRAYLING       CLOUDY    55  49  80 CALM      29.84S
HARBOR SPRINGS SUNNY     54  48  80 CALM      29.84F
HOUGHTON LAKE  PTSUNNY   60  53  77 VRB5      29.83F
MANISTEE       CLOUDY    59  53  80 CALM      29.80S
OSCODA         LGT RAIN  55  53  93 SW5       29.84F
PELLSTON       MOSUNNY   52  46  80 CALM      29.86S
ROGERS CITY    FOG       47  46  99 N5        29.87S VSB 1/4
TRAVERSE CITY  PTSUNNY   54  46  74 N5        29.81F
$$
MIZ007>008-015-231500-
EASTERN UPPER MICHIGAN

CITY           SKY/WX    TMP DP  RH WIND       PRES   REMARKS
KINROSS        CLOUDY    47  46  97 NE5       29.87R FOG
MACKINAC ISLAN FOG       45  45 100 E5        29.86S VSB 1/4
NEWBERRY       SUNNY     52  45  78 N5        29.86S
S. S. MARIE    CLOUDY    49  47  93 NE5       29.86S FOG
MUNISING         N/A     50  45  83 NE5       29.85R
$$
MIZ004>006-011>014-085-231500-
CENTRAL UPPER MICHIGAN

CITY           SKY/WX    TMP DP  RH WIND       PRES   REMARKS
MANISTIQUE     CLOUDY    50  47  89 NE3       29.85S
ESCANABA       CLOUDY    49  46  90 N3        29.86R
MENOMINEE      CLOUDY    49  47  93 NE6       29.84F
SAWYER-GWINN   PTSUNNY   48  45  87 CALM      29.86R
$$
MIZ001>003-009>011-084-231500-
WESTERN UPPER MICHIGAN

CITY           SKY/WX    TMP DP  RH WIND       PRES   REMARKS
IRON MOUNTAIN  CLOUDY    48  43  82 N3        29.84S
HOUGHTON       CLOUDY    52  44  74 CALM      29.85R
COPPER HARBOR    N/A     43  40  89 CALM      29.86R
IRONWOOD       CLOUDY    52  45  77 E3        29.86S
$$

ABBREVIATIONS USED IN REMARKS
   TC - TEMPERATURE IN CELSIUS
  WCI - WIND CHILL INDEX
   HX - HEAT INDEX
  VSB - VISIBILITY





USA.gov is the U.S. government's official web portal to all federal, state and local government web resources and services.